[Iaude] MPEC O110: 2024 OL1 [a=1.69,e=0.33,i=25.1,H=22.8]
    mpec at cfa.harvard.edu 
    mpec at cfa.harvard.edu
       
    Wed Jul 31 07:05:42 EDT 2024
    
    
  
M.P.E.C. 2024-O110                                Issued 2024 July 31, 11:04 UT
     The Minor Planet Electronic Circulars contain information on unusual
         minor planets, routine data on comets and natural satellites,
         and occasional editorial announcements.  They are published
    on behalf of Division F of the International Astronomical Union by the
          Minor Planet Center, Smithsonian Astrophysical Observatory,
                          Cambridge, MA 02138, U.S.A.
			  
             Prepared using the Tamkin Foundation Computer Network
                              MPC at CFA.HARVARD.EDU
            URL https://www.minorplanetcenter.net/    ISSN 1523-6714
                                    2024 OL1                                    
Observations:
     K24O01L  C2024 07 27.44437721 33 02.332-16 00 46.85               VEO110F51
     K24O01L  C2024 07 27.45596821 33 00.151-15 59 38.31         20.45GVEO110F51
     K24O01L* C2024 07 27.46779221 32 57.941-15 58 28.36         20.59wXEO110F51
     K24O01L  C2024 07 27.47961621 32 55.743-15 57 18.39         20.76wXEO110F51
     K24O01L  C2024 07 27.54201021 32 44.068-15 51 06.55         20.66GVEO110F51
     K24O01L  C2024 07 27.54265421 32 43.949-15 51 02.82         20.70GVEO110F51
     K24O01L |C2024 07 28.25668021 30 40.450-14 38 42.40         20.3 GVEO110807
     K24O01L |C2024 07 28.26109021 30 39.590-14 38 15.20         20.4 GVEO110807
     K24O01L |C2024 07 28.26535021 30 38.800-14 37 48.90         20.5 GVEO110807
     K24O01L 3C2024 07 28.54029321 29 49.472-14 10 09.74         20.61GVEO110T14
     K24O01L 3C2024 07 28.54148021 29 49.243-14 10 02.42         20.59GVEO110T14
     K24O01L 3C2024 07 28.54254521 29 49.041-14 09 55.89         20.59GVEO110T14
     K24O01L KC2024 07 28.87348621 28 52.440-13 35 44.56         20.4 GXEO110M57
     K24O01L KC2024 07 28.89800621 28 47.782-13 33 11.88         20.6 GXEO110M57
     K24O01L KB2024 07 29.05848321 28 17.33 -13 16 27.9          20.5 GXEO110I93
     K24O01L KB2024 07 29.07385321 28 14.36 -13 14 51.5          20.9 GXEO110I93
     K24O01L !C2024 07 31.36418 21 21 05.46 -09 04 52.3          20.2 GVEO110673
     K24O01L !C2024 07 31.36793 21 21 04.68 -09 04 26.9                VEO110673
Observer details:
673 Table Mountain Observatory, Wrightwood.  Observer J. Pittichova.  1.0-m
    f/15 reflector + CCD.
807 Cerro Tololo Observatory, La Serena.  Observers T. Linder, R. Holmes.
    0.61-m f/6.8 Ritchey-Chretien + CCD.
F51 Pan-STARRS 1, Haleakala.  Observers J. Herman, T. Lowe, P. Minguez, A.
    Schultz, I. Smith.  Measurers K. Chambers, T. de Boer, J. Fairlamb, H.
    Gao, M. Huber, C.-C. Lin, E. Magnier, Y. Ramanjooloo, R. Wainscoat, R.
    Weryk.  1.8-m Ritchey-Chretien + CCD.
I93 St Pardon de Conques.  Observer F. Losse.  0.40-m f/3.7 reflector + CMO.
M57 Wide-field Mufara Telescope, Isnello.  Observer A. Nastasi.  1.00-m f/2.1
    reflector + CCD.
T14 Canada-France-Hawaii Telescope, Maunakea.  Observers R. Wainscoat, J.
    Silva, H. Flewelling.  Measurers R. Weryk, R. Wainscoat.  3.6-m f/4.1
    reflector + CCD.
Orbital elements:
2024 OL1                                                 Earth MOID = 0.2013 AU
Epoch 2024 Oct. 17.0 TT = JDT 2460600.5                 Veres                   
M  12.08292              (2000.0)            P               Q                  
n   0.44930631     Peri.   47.72002     +0.94228490     +0.02462581             
a   1.6882666      Node   308.00325     -0.23251039     +0.76572141             
e   0.3271806      Incl.   25.07161     +0.24091096     +0.64270078             
P   2.19           H   22.84          G   0.15           U   9                  
Residuals in seconds of arc
240727 F51  0.2+  0.2+    240728 807  0.0   0.2-    240728 M57  0.0   0.2+
240727 F51  0.1-  0.2+    240728 807  0.2-  0.0     240728 M57  0.1-  0.2+
240727 F51  0.1-  0.1+    240728 807  0.1+  0.2+    240729 I93  0.0   0.4+
240727 F51  0.1+  0.1-    240728 T14  0.0   0.1-    240729 I93  0.0   0.1-
240727 F51  0.0   0.2+    240728 T14  0.0   0.1-    240731 673  0.0   0.1-
240727 F51  0.0   0.1+    240728 T14  0.1+  0.2-    240731 673  0.0   0.1-
Ephemeris:
2024 OL1                 a,e,i = 1.69, 0.33, 25                  q = 1.1359
Date    TT    R. A. (2000) Decl.     Delta      r    Elong.  Phase     V
2024 07 01    22 10 31.1 -40 36 43   0.4228  1.3407   132.9    33.7    23.0
...
2024 07 16    21 58 30.8 -30 40 21   0.2988  1.2798   148.1    24.8    21.9
...
2024 07 24    21 42 13.7 -21 17 14   0.2473  1.2502   159.3    16.7    21.2
...
2024 07 30    21 25 24.8 -11 35 33   0.2193  1.2295   166.5    11.1    20.7
2024 07 31    21 22 15.9 -09 45 26   0.2157  1.2262   167.0    10.8    20.6
2024 08 01    21 19 01.6 -07 52 02   0.2126  1.2230   166.9    10.8    20.6
...
2024 08 07    20 58 06.8 +04 16 02   0.2014  1.2045   159.1    17.4    20.7
...
2024 08 15    20 28 26.7 +20 11 47   0.2078  1.1828   141.6    32.1    21.2
...
2024 08 30    19 39 57.5 +40 16 05   0.2650  1.1524   116.4    51.7    22.2
M. P. C. Staff               (C) Copyright 2024 MPC           M.P.E.C. 2024-O110
    
    
More information about the Iaude
mailing list